This demonstration page uses our WeatherBlox Daily Observations layout. Learn more.

Left ArrowRight Arrow

Hourly Observations for May 25, 2018

Temp ( °F °C ) Dew Point ( °F °C ) Humidity (%) Winds ( mph kmh ) Pressure ( in mb ) Visibility ( mi km ) Precip ( " mm )
12:53 am 00:53 Clear 60 15.6 58 14.4 93 93 Calm 30.09 1019 10 16 0.00 0.00
1:53 am 01:53 Clear 59 15 58 14.4 96 96 Calm 30.07 1018 10 16 0.00 0.00
2:53 am 02:53 Clear 58 14.4 57 13.9 97 97 Calm 30.05 1018 10 16 0.00 0.00
3:53 am 03:53 Clear 57 13.9 57 13.9 100 100 Calm 30.05 1018 9 14 0.00 0.00
4:53 am 04:53 Clear 57 13.9 56 13.3 96 96 Calm 30.04 1017 8 13 0.00 0.00
5:53 am 05:53 Clear 56 13.3 55 12.8 97 97 Calm 30.04 1017 7 11 0.00 0.00
6:53 am 06:53 Sunny 57 13.9 57 13.9 100 100 Calm 30.04 1017 9 14 0.00 0.00
7:53 am 07:53 Sunny 63 17.2 61 16.1 93 93 Calm 30.04 1017 10 16 0.00 0.00
8:53 am 08:53 Sunny 68 20 62 16.7 81 81 Calm 30.02 1017 10 16 0.00 0.00
9:53 am 09:53 Sunny 76 24.4 62 16.7 62 62 Calm 30.01 1016 10 16 0.00 0.00
10:53 am 10:53 Sunny 80 26.7 62 16.7 54 54 Calm 30.00 1016 10 16 0.00 0.00
11:53 am 11:53 Sunny 81 27.2 59 15 47 47 Calm 30.00 1016 10 16 0.00 0.00
12:53 pm 12:53 Sunny 83 28.3 60 15.6 46 46 Calm 29.98 1015 10 16 0.00 0.00
1:53 pm 13:53 Sunny 85 29.4 60 15.6 43 43 W 9 15 29.96 1015 10 16 0.00 0.00
2:53 pm 14:53 Sunny 85 29.4 60 15.6 43 43 SW 9 15 29.95 1014 10 16 0.00 0.00
3:53 pm 15:53 Sunny 86 30 57 13.9 37 37 WSW 6 9 29.92 1013 10 16 0.00 0.00
4:53 pm 16:53 Sunny 86 30 58 14.4 39 39 WSW 10 17 29.88 1012 10 16 0.00 0.00
5:53 pm 17:53 Sunny 86 30 58 14.4 39 39 WSW 5 7 29.87 1012 10 16 0.00 0.00
6:53 pm 18:53 Sunny 85 29.4 58 14.4 40 40 VRB 3 6 29.86 1011 10 16 0.00 0.00
7:53 pm 19:53 Sunny 83 28.3 58 14.4 43 43 WSW 7 11 29.86 1011 10 16 0.00 0.00
8:53 pm 20:53 Sunny 75 23.9 62 16.7 64 64 Calm 29.87 1011 10 16 0.00 0.00
9:53 pm 21:53 Clear 68 20 62 16.7 81 81 Calm 29.85 1011 10 16 0.00 0.00
10:53 pm 22:53 Clear 67 19.4 63 17.2 87 87 Calm 29.86 1011 10 16 0.00 0.00
11:53 pm 23:53 Clear 67 19.4 63 17.2 87 87 Calm 29.85 1011 10 16 0.00 0.00

Powered by AerisWeather